Station 41044 - NE ST MARTIN - 330 NM NE St Martin Is Image indicating link to RSS feed of recent meteorological observations for station 41044


Conditions at 41044 as of
(5:40 pm AST)
2140 GMT on 07/20/2024:
     

Click on the graph icon in the table below to see a time series plot of the last five days of that observation.

5-day plot - Wind Direction Wind Direction (WDIR):ENE ( 60 deg true )
5-day plot - Wind Speed Wind Speed (WSPD): 15.5 kts
5-day plot - Wind Gust Wind Gust (GST): 19.4 kts
5-day plot - Atmospheric Pressure Atmospheric Pressure (PRES):30.08 in
5-day plot - Air Temperature Air Temperature (ATMP): 83.7 °F
5-day plot - Water Temperature Water Temperature (WTMP): 84.6 °F
5-day plot - Dew Point Dew Point (DEWP): 76.5 °F
5-day plot - Heat Index Heat Index (HEAT): 92.7 °F
5-day plot - Wind Speed at 10 Meters Wind Speed at 10 meters (WSPD10M): 17.5 kts
5-day plot - Wind Speed at 20 Meters Wind Speed at 20 meters (WSPD20M): 19.4 kts
5-day plot -  Wind Speed, Wind Gust and Atmospheric Pressure Combined plot of Wind Speed, Gust, and Air Pressure
Supplemental Measurements
Highest 1-minute Wind Speed
Time (AST)5-day plot - 1-Minute Wind Speed WSPD 5-day plot - 1-Minute Wind Direction WDIR
5:37 pm 17.5 kts-
Previous observations
TIME
(AST)
5-day plot - Wind Direction
WDIR
 
5-day plot - Wind Speed
WSPD
kts
5-day plot - Wind Gust
GST
kts
5-day plot - Wave Height
WVHT
ft
5-day plot - Dominant Wave Period
DPD
sec
5-day plot - Average Wave Period
APD
sec
5-day plot - Mean Wave Direction
MWD
 
5-day plot - Atmospheric Pressure
PRES
in
5-day plot - Pressure Tendency
PTDY
in
5-day plot - Air Temperature
ATMP
°F
5-day plot - Water Temperature
WTMP
°F
5-day plot - Dew Point
DEWP
°F
5-day plot - Salinity
SAL
psu
5-day plot - Visibility
VIS
nmi
5-day plot - Tide (above MLLW)
TIDE
ft
2024-07-20 05:30 pmENE 15.5 19.4----30.07- 83.7 84.6 76.6---
2024-07-20 05:20 pmENE 15.5 19.4 5.9 85.4 E30.07- 83.7 84.6 77.0---
2024-07-20 05:10 pmENE 15.5 19.4 5.9-5.4 E30.07- 83.7 84.6 76.8---
2024-07-20 05:00 pmENE 15.5 19.4----30.07-0.04 83.7 84.6 77.2---
2024-07-20 04:50 pmENE 15.5 19.4 5.6 85.3 E30.07- 83.7 84.6 76.8---
2024-07-20 04:40 pmENE 15.5 17.5----30.07- 83.8 84.6 77.0---
2024-07-20 04:30 pmENE 15.5 17.5----30.07- 83.7 84.6 76.6---
2024-07-20 04:20 pmENE 15.5 19.4 5.6 85.5 E30.07- 83.7 84.6 76.3---
2024-07-20 04:10 pmENE 15.5 19.4 5.6-5.5 E30.07- 83.8 84.6 76.3---
2024-07-20 04:00 pmENE 15.5 19.4----30.07-0.05 83.7 84.6 76.5---
2024-07-20 03:50 pmENE 15.5 19.4 5.6 85.4 E30.08- 83.8 84.6 76.6---
2024-07-20 03:40 pmENE 15.5 19.4----30.08- 83.8 84.6 76.8---
2024-07-20 03:30 pmENE 15.5 19.4----30.09- 83.7 84.6 77.2---
2024-07-20 03:20 pmENE 15.5 17.5 5.9 85.6 E30.09- 83.7 84.6 77.0---
2024-07-20 03:10 pmENE 15.5 17.5 5.9-5.6 E30.09- 83.8 84.6 76.8---
2024-07-20 03:00 pmENE 15.5 19.4----30.09-0.05 83.8 84.6 76.5---
2024-07-20 02:50 pmENE 15.5 17.5 5.9 85.5 E30.09- 83.8 84.6 76.6---
2024-07-20 02:40 pmENE 13.6 17.5----30.10- 83.8 84.6 77.0---
2024-07-20 02:30 pmENE 15.5 19.4----30.10- 83.8 84.6 76.6---
2024-07-20 02:20 pmENE 13.6 17.5 6.2 85.7 E30.10- 83.8 84.6 76.5---
2024-07-20 02:10 pmENE 13.6 17.5 6.2-5.7 E30.11- 83.8- 77.0---
2024-07-20 02:00 pmENE 13.6 17.5----30.11-0.04 83.8 84.6 77.0---
2024-07-20 01:50 pmENE 15.5 19.4 6.2 85.5 E30.11- 83.8 84.6 76.8---
2024-07-20 01:40 pmENE 13.6 17.5----30.11- 83.7 84.6 77.0---
2024-07-20 01:30 pmENE 13.6 17.5----30.11- 83.7 84.6 77.2---
2024-07-20 01:20 pmENE 13.6 17.5 6.2 85.4 E30.11- 83.8 84.6 77.4---
2024-07-20 01:10 pmENE 13.6 17.5 6.2-5.4 E30.12- 83.8 84.6 77.0---
2024-07-20 01:00 pmENE 13.6 17.5----30.12-0.04 83.8 84.6 76.6---
2024-07-20 12:50 pmENE 13.6 17.5 6.2 85.4 E30.12- 83.8 84.6 76.1---
2024-07-20 12:40 pmENE 15.5 17.5----30.12- 83.7 84.6 76.6---
2024-07-20 12:30 pmENE 15.5 17.5----30.13- 83.7 84.6 77.4---
2024-07-20 12:20 pmENE 15.5 19.4 5.6 85.2ESE30.13- 83.7 84.6 77.7---
2024-07-20 12:10 pmENE 15.5 17.5 5.6-5.2ESE30.14- 83.7 84.6 77.5---
2024-07-20 12:00 pmENE 15.5 19.4----30.14-0.02 83.7 84.6 77.2---
2024-07-20 11:50 amENE 15.5 19.4 5.9 85.4 E30.14- 83.7 84.4 77.0---
2024-07-20 11:40 amENE 17.5 19.4----30.14- 83.7 84.4 77.2---
2024-07-20 11:30 amENE 17.5 19.4----30.14- 83.7 84.4 77.5---
2024-07-20 11:20 amENE 15.5 19.4 6.2 85.4 E30.14- 83.7 84.4 77.4---
2024-07-20 11:10 amENE 17.5 19.4 6.2-5.4 E30.14- 83.8 84.4 77.2---
2024-07-20 11:00 amENE 17.5 19.4----30.14-0.01 83.8 84.4 77.2---
2024-07-20 10:50 am E 17.5 21.4 6.2 85.4 E30.15- 84.0 84.4 77.0---
2024-07-20 10:40 amENE 17.5 21.4----30.15- 84.0 84.4 76.6---
2024-07-20 10:30 am E 17.5 21.4----30.15- 84.0 84.4 76.8---
2024-07-20 10:20 amENE 17.5 21.4 6.6 85.7 E30.15- 84.0 84.4 77.2---
2024-07-20 10:10 amENE 15.5 19.4 6.6-5.7 E30.16- 83.1 84.4 77.5---
2024-07-20 10:00 amENE 13.6 21.4----30.16+0.00 81.7 84.4 77.4---
2024-07-20 09:50 amENE 15.5 21.4 5.6 85.4 E30.16- 83.7 84.4 77.7---
2024-07-20 09:40 amENE 15.5 19.4 5.6-5.4 E30.16- 83.8 84.4 77.2---
2024-07-20 09:30 amENE 15.5 19.4----30.16- 83.8 84.4 77.5---
2024-07-20 09:20 amENE 15.5 17.5 5.9 85.4ESE30.16- 83.7 84.4 77.5---
2024-07-20 09:10 amENE 15.5 19.4 5.9-5.4ESE30.16- 83.7 84.4 77.5---
2024-07-20 09:00 amENE 15.5 19.4----30.16+0.02 83.7 84.4 77.7---
2024-07-20 08:50 amENE 15.5 19.4 5.9 85.4 E30.16- 83.5 84.4 77.5---
2024-07-20 08:40 amENE 15.5 19.4----30.16- 83.5 84.4 77.4---
2024-07-20 08:30 amENE 15.5 21.4----30.15- 83.5 84.4 77.2---
2024-07-20 08:20 amENE 15.5 19.4 5.9 85.4 E30.15- 83.5 84.4 77.5---
2024-07-20 08:10 amENE 15.5 21.4 5.9-5.4 E30.15- 83.5 84.4 77.4---
2024-07-20 08:00 amENE 15.5 21.4----30.15+0.02 83.5 84.4 77.4---
2024-07-20 07:50 amENE 17.5 21.4 6.6 85.3 E30.15- 83.5 84.4 77.2---
2024-07-20 07:40 am E 17.5 19.4 6.6-5.3 E30.15- 83.7 84.4 77.4---
2024-07-20 07:30 amENE 15.5 19.4----30.15- 83.7 84.4 77.4---
2024-07-20 07:20 amENE 15.5 19.4 6.2 85.4 E30.15- 83.7 84.4 77.2---
2024-07-20 07:10 amENE 15.5 21.4 6.2-5.4 E30.15- 83.7 84.4 77.0---
2024-07-20 07:00 amENE 15.5 19.4----30.15+0.03 83.7 84.4 77.0---
2024-07-20 06:50 amENE 17.5 21.4 5.9 85.3 E30.15- 83.3 84.4 77.0---
2024-07-20 06:40 amENE 17.5 21.4----30.15- 83.3 84.4 77.2---
2024-07-20 06:30 amENE 17.5 21.4----30.14- 83.3 84.4 77.7---
2024-07-20 06:20 amENE 17.5 21.4 6.2 85.4 E30.14- 83.3 84.4 77.5---
2024-07-20 06:10 amENE 17.5 21.4 6.2-5.4 E30.14- 83.1 84.4 77.5---
2024-07-20 06:00 amENE 17.5 21.4----30.14+0.01 83.1 84.4 77.4---
2024-07-20 05:50 amENE 17.5 21.4 6.6 85.5ESE30.14- 83.1 84.4 77.5---
2024-07-20 05:40 amENE 15.5 19.4----30.14- 82.9 84.4 77.5---
2024-07-20 05:30 amENE 15.5 19.4----30.14- 83.1 84.4 77.7---
2024-07-20 05:20 amENE 15.5 19.4 6.2 85.5 E30.14- 83.1 84.4 77.4---
2024-07-20 05:10 amENE 15.5 19.4 6.2-5.5 E30.14- 83.1 84.4 77.5---
2024-07-20 05:00 amENE 15.5 19.4----30.14+0.00 83.1 84.4 77.7---
2024-07-20 04:50 amENE 17.5 21.4 6.6 85.7 E30.14- 83.1 84.4 77.7---
2024-07-20 04:40 amENE 15.5 21.4----30.14- 83.1 84.4 78.1---
2024-07-20 04:30 amENE 15.5 21.4----30.13- 83.1 84.4 77.9---
2024-07-20 04:20 amENE 15.5 19.4 6.6 85.5 E30.13- 83.1 84.4 77.5---
2024-07-20 04:10 amENE 15.5 19.4 6.6-5.5 E30.13- 83.1 84.4 77.7---
2024-07-20 04:00 amENE 17.5 19.4----30.13-0.01 82.9 84.4 77.9---
2024-07-20 03:50 amENE 15.5 19.4 6.2 85.6 E30.12- 83.1 84.4 78.3---
2024-07-20 03:40 amENE 17.5 19.4----30.12- 82.9 84.4 78.1---
2024-07-20 03:30 amENE 15.5 19.4----30.13- 83.1 84.4 77.9---
2024-07-20 03:20 amENE 15.5 19.4 6.6 85.6 E30.13- 83.1 84.4 77.7---
2024-07-20 03:10 amENE 15.5 21.4 6.6-5.6 E30.13- 83.1 84.4 77.9---
2024-07-20 03:00 amENE 15.5 19.4----30.13-0.03 83.1 84.4 77.9---
2024-07-20 02:50 amENE 15.5 19.4 6.6 85.6 E30.13- 83.1 84.4 78.1---
2024-07-20 02:40 amENE 17.5 21.4----30.13- 83.1 84.4 77.7---
2024-07-20 02:30 amENE 15.5 19.4----30.13- 83.1 84.4 77.9---
2024-07-20 02:20 amENE 17.5 19.4 6.6 85.5 E30.13- 83.1 84.4 78.1---
2024-07-20 02:10 amENE 17.5 19.4 6.6-5.5 E30.13- 83.3 84.4 78.1---
2024-07-20 02:00 amENE 17.5 21.4----30.13-0.05 83.3 84.4 77.9---
2024-07-20 01:50 amENE 15.5 19.4 6.6 85.7 E30.13- 83.3- 78.1---
2024-07-20 01:40 amENE 15.5 19.4----30.14- 83.3 84.4 78.1---
2024-07-20 01:30 amENE 15.5 19.4----30.14- 83.3 84.4 77.7---
2024-07-20 01:20 amENE 17.5 19.4 6.9 85.7ESE30.14- 83.3 84.4 77.5---
2024-07-20 01:10 amENE 15.5 19.4 6.9-5.7ESE30.14- 83.5 84.4 77.7---
2024-07-20 01:00 amENE 17.5 21.4----30.14-0.04 83.5 84.6 77.7---
2024-07-20 12:50 amENE 15.5 19.4 6.6 85.6ESE30.14- 83.5 84.6 77.9---
2024-07-20 12:40 amENE 15.5 21.4----30.15- 83.7 84.4 77.9---
2024-07-20 12:30 amENE 15.5 19.4----30.15- 83.7 84.6 78.3---
2024-07-20 12:20 amENE 15.5 19.4 6.9 85.8 E30.15- 83.7 84.4 78.1---
2024-07-20 12:10 amENE 15.5 19.4 6.9-5.8 E30.16- 83.7 84.4 78.1---
2024-07-20 12:00 amENE 17.5 21.4----30.16-0.01 83.7 84.4 78.1---
2024-07-19 11:50 pmENE 17.5 21.4 6.9 85.7ESE30.16- 83.7 84.6 78.1---
2024-07-19 11:40 pmENE 15.5 19.4 6.9-5.7ESE30.17- 83.8 84.6 78.3---
2024-07-19 11:30 pmENE 17.5 21.4----30.17- 83.7 84.6 78.1---
2024-07-19 11:20 pmENE 15.5 19.4 7.5 85.8ESE30.18- 83.7 84.6 77.9---
2024-07-19 11:10 pmENE 17.5 21.4 7.5-5.8ESE30.18- 83.8 84.6 78.1---
2024-07-19 11:00 pmENE 15.5 21.4----30.18+0.02 83.8 84.6 78.3---
2024-07-19 10:50 pmENE 17.5 21.4 6.6 85.6 E30.18- 83.8 84.6 78.4---
2024-07-19 10:40 pmENE 17.5 21.4----30.18- 83.8 84.6 78.4---
2024-07-19 10:30 pmENE 17.5 21.4----30.18- 83.8 84.6 78.8---
2024-07-19 10:20 pmENE 17.5 21.4 6.6 85.7 E30.18- 84.0 84.6 78.8---
2024-07-19 10:10 pmENE 17.5 21.4 6.6-5.7 E30.18- 84.0 84.6 79.0---
2024-07-19 10:00 pmENE 17.5 21.4----30.18+0.04 84.0 84.6 78.8---
2024-07-19 09:50 pmENE 17.5 21.4 7.2 95.8ESE30.18- 83.8 84.6 78.6---
2024-07-19 09:40 pmENE 17.5 21.4 7.2-5.8ESE30.18- 84.0 84.6 78.8---
2024-07-19 09:30 pmENE 17.5 21.4----30.17- 84.0 84.6 78.8---
2024-07-19 09:20 pmENE 17.5 21.4 7.5 85.8 E30.17- 84.0 84.6 78.8---
2024-07-19 09:10 pmENE 17.5 21.4 7.5-5.8 E30.17- 84.0 84.6 78.8---
2024-07-19 09:00 pmENE 17.5 21.4----30.17+0.04 84.0 84.6 79.0---
2024-07-19 08:50 pmENE 17.5 21.4 7.2 85.7 E30.17- 84.0 84.6 78.8---
2024-07-19 08:40 pmENE 15.5 21.4----30.16- 84.0 84.6 79.0---
2024-07-19 08:30 pmENE 17.5 21.4----30.16- 84.2 84.6 79.0---
2024-07-19 08:20 pmENE 15.5 19.4 6.9 85.9 E30.16- 84.2 84.6 79.0---
2024-07-19 08:10 pm E 17.5 19.4 6.9-5.9 E30.16- 84.2 84.6 79.0---
2024-07-19 08:00 pmENE 17.5 21.4----30.16+0.05 84.2 84.6 78.8---
2024-07-19 07:50 pm E 17.5 21.4 7.2 85.9ESE30.15- 84.2 84.6 78.8---
2024-07-19 07:40 pm E 17.5 21.4----30.15- 84.2 84.6 79.0---
2024-07-19 07:20 pmENE 17.5 21.4 6.6 85.7 E30.15- 84.2 84.6 79.2---
2024-07-19 07:10 pmENE 17.5 19.4----30.15- 84.2 84.6 79.2---
2024-07-19 07:00 pmENE 15.5 21.4----30.14+0.03 84.4 84.6 79.2---
2024-07-19 06:50 pmENE 15.5 19.4 6.9 95.7ESE30.14- 84.4 84.6 79.0---
2024-07-19 06:40 pm E 17.5 21.4----30.14- 84.4 84.6 78.4---
2024-07-19 06:30 pm E 15.5 21.4----30.14- 84.4 84.6 78.8---
2024-07-19 06:20 pm E 17.5 21.4 7.2 85.7ESE30.13- 84.6 84.6 78.8---
2024-07-19 06:10 pm E 17.5 21.4 7.2-5.7ESE30.13- 84.4 84.6 79.0---
2024-07-19 06:00 pm E 17.5 21.4----30.13+0.00 84.4 84.6 79.0---
2024-07-19 05:50 pm E 17.5 21.4 6.9 85.7 E30.12- 84.4 84.6 78.8---

Detailed Wave Summary
for 41044 as of (5:10 pm AST)
2110 GMT on 07/20/2024:

These wave data are displayed in rounded times.

     

Click on the graph icon in the table below to see a time series plot of the last five days of that observation.

5-day plot - Significant Wave Height Significant Wave Height (WVHT): 5.9 ft
5-day plot - Swell Height Swell Height (SwH): 3.0 ft
5-day plot - Swell Period Swell Period (SwP): 8.3 sec
5-day plot - Swell Direction Swell Direction (SwD): E
5-day plot - Wind Wave Height Wind Wave Height (WWH): 4.9 ft
5-day plot - Wind Wave Period Wind Wave Period (WWP): 6.7 sec
5-day plot - Wind Wave Direction Wind Wave Direction (WWD): E
5-day plot - Wave Steepness Wave Steepness (STEEPNESS): AVERAGE
5-day plot - Average Wave Period Average Wave Period (APD): 5.4 sec
Previous observations
TIME
(AST)
5-day plot - Wave Height
WVHT
ft
5-day plot - Swell Height
SwH
ft
5-day plot - Swell Period
SwP
sec
5-day plot - Swell Direction
SwD
 
5-day plot - Wind Wave Height
WWH
ft
5-day plot - Wind Wave Period
WWP
sec
5-day plot - Wind Wave Direction
WWD
 
5-day plot - Wave Steepness
STEEPNESS
 
5-day plot - Average Wave Period
APD
sec
2024-07-20 04:40 pm 5.6 3.3 8.3 E 4.3 6.7 E AVERAGE 5.3
2024-07-20 04:10 pm 5.6 3.6 8.3 E 4.6 7.1 E AVERAGE 5.5
2024-07-20 03:40 pm 5.6 3.3 7.7 E 4.3 5.0 ENE STEEP 5.4
2024-07-20 03:10 pm 5.9 3.9 7.7 E 4.6 5.9 E STEEP 5.6
2024-07-20 02:40 pm 5.9 4.3 8.3 E 3.9 5.3 E AVERAGE 5.5
2024-07-20 02:10 pm 6.2 4.3 8.3 E 4.6 6.2 E AVERAGE 5.7
2024-07-20 01:40 pm 6.2 3.9 7.7 E 4.6 6.2 E STEEP 5.5
2024-07-20 01:10 pm 6.2 3.9 7.7 E 4.9 6.7 E STEEP 5.4
2024-07-20 12:40 pm 6.2 3.9 7.7 E 4.9 5.9 E STEEP 5.4
2024-07-20 12:10 pm 5.6 3.3 8.3ESE 4.6 6.7 E AVERAGE 5.2
2024-07-20 11:40 am 5.9 3.6 8.3 E 4.6 6.7 E AVERAGE 5.4
2024-07-20 11:10 am 6.2 3.6 8.3 E 4.9 5.9 ENE AVERAGE 5.4
2024-07-20 10:40 am 6.2 3.3 9.1ESE 5.2 7.7 E STEEP 5.4
2024-07-20 10:10 am 6.6 4.6 8.3 E 4.9 6.7 E AVERAGE 5.7
2024-07-20 09:40 am 5.6 3.6 7.7 E 4.3 5.9 ENE STEEP 5.4
2024-07-20 09:10 am 5.9 3.6 8.3ESE 4.6 5.9 E AVERAGE 5.4
2024-07-20 08:40 am 5.9 3.3 8.3 E 4.9 5.6 ENE AVERAGE 5.4
2024-07-20 08:10 am 5.9 3.0 8.3 E 5.2 6.7 E AVERAGE 5.4
2024-07-20 07:40 am 6.6 3.9 7.7 E 5.2 6.2 E STEEP 5.3
2024-07-20 07:10 am 6.2 3.3 8.3 E 5.2 6.2 E AVERAGE 5.4
2024-07-20 06:40 am 5.9 3.0 8.3 E 4.9 5.0 ENE AVERAGE 5.3
2024-07-20 06:10 am 6.2 3.3 8.3 E 4.9 6.2 E AVERAGE 5.4
2024-07-20 05:40 am 6.6 3.9 8.3ESE 5.2 6.7 E AVERAGE 5.5
2024-07-20 05:10 am 6.2 3.3 8.3 E 5.2 7.1 E AVERAGE 5.5
2024-07-20 04:40 am 6.6 3.9 8.3 E 5.2 6.2 E AVERAGE 5.7
2024-07-20 04:10 am 6.6 4.3 8.3 E 4.9 6.2 E AVERAGE 5.5
2024-07-20 03:40 am 6.2 3.9 8.3 E 4.9 7.1 E AVERAGE 5.6
2024-07-20 03:10 am 6.6 3.6 12.9 SE 5.6 7.7 E STEEP 5.6
2024-07-20 02:40 am 6.6 2.3 17.4 SE 5.9 7.7 E STEEP 5.6
2024-07-20 02:10 am 6.6 3.3 8.3 E 5.9 6.7 ESE AVERAGE 5.5
2024-07-20 01:40 am 6.6 4.3 8.3 E 4.9 7.1 E AVERAGE 5.7
2024-07-20 01:10 am 6.9 3.9 8.3ESE 5.6 7.1 E AVERAGE 5.7
2024-07-20 12:40 am 6.6 3.6 8.3ESE 5.6 4.2 ENE AVERAGE 5.6
2024-07-20 12:10 am 6.9 3.9 8.3 E 5.6 6.7 E AVERAGE 5.8
2024-07-19 11:40 pm 6.9 3.9 8.3ESE 5.6 5.9 E AVERAGE 5.7
2024-07-19 11:10 pm 7.5 4.3 8.3ESE 6.2 6.7 E STEEP 5.8
2024-07-19 10:40 pm 6.6 3.6 8.3 E 5.6 6.7 E AVERAGE 5.6
2024-07-19 10:10 pm 6.6 3.6 8.3 E 5.6 6.7 E AVERAGE 5.7
2024-07-19 09:40 pm 7.2 3.3 9.1ESE 6.2 7.1 E AVERAGE 5.8
2024-07-19 09:10 pm 7.5 3.0 12.9ESE 6.9 7.7 E STEEP 5.8
2024-07-19 08:40 pm 7.2 3.9 8.3 E 5.9 7.1 E STEEP 5.7
2024-07-19 08:10 pm 6.9 4.3 8.3 E 5.2 5.3 E AVERAGE 5.9
2024-07-19 07:40 pm 7.2 4.3 8.3ESE 5.6 5.6 E STEEP 5.9
2024-07-19 07:10 pm 6.6 3.9 8.3 E 5.2 6.2 E AVERAGE 5.7
2024-07-19 06:40 pm 6.9 4.3 9.1ESE 5.2 6.7 E AVERAGE 5.7
2024-07-19 06:10 pm 7.2 4.6 8.3ESE 5.2 4.5 E STEEP 5.7

Plot of wave energy versus frequency (and period)